time, beta470, beta532, beta650
yyyy/mm/dd HH:MM:SS.fff, counts, counts, counts
2023/06/21 06:00:02.491, 111, 160, 83
2023/06/21 06:00:03.627, 110, 133, 83
2023/06/21 06:00:04.763, 113, 129, 82
2023/06/21 06:00:05.883, 109, 129, 79
2023/06/21 06:00:07.018, 112, 132, 78
2023/06/21 06:00:08.155, 114, 131, 80
2023/06/21 06:00:09.274, 112, 136, 85
2023/06/21 06:00:10.409, 109, 127, 83
2023/06/21 06:00:11.530, 113, 134, 80
2023/06/21 06:00:12.666, 112, 131, 97
2023/06/21 06:00:13.802, 118, 133, 83
2023/06/21 06:00:14.922, 111, 131, 83
2023/06/21 06:00:16.058, 113, 131, 83
2023/06/21 06:00:17.194, 112, 134, 87
2023/06/21 06:00:18.314, 113, 131, 83
2023/06/21 06:00:19.450, 109, 129, 81
2023/06/21 06:00:20.570, 110, 141, 81
2023/06/21 06:00:21.706, 117, 129, 101
2023/06/21 06:00:22.842, 111, 129, 99
2023/06/21 06:00:23.961, 109, 136, 90
2023/06/21 06:00:25.098, 114, 129, 89
2023/06/21 06:00:26.233, 111, 129, 107
2023/06/21 06:00:27.353, 111, 126, 105
2023/06/21 06:00:28.489, 113, 140, 89
2023/06/21 06:00:29.625, 113, 126, 99
2023/06/21 06:00:30.745, 110, 132, 102
2023/06/21 06:00:31.881, 111, 133, 92
2023/06/21 06:00:33.001, 114, 143, 89
2023/06/21 06:00:34.137, 114, 131, 81
2023/06/21 06:00:35.273, 115, 136, 83
2023/06/21 06:00:36.393, 118, 136, 92
2023/06/21 06:00:37.529, 110, 135, 92
2023/06/21 06:00:38.649, 115, 140, 85
2023/06/21 06:00:39.785, 164, 137, 90
2023/06/21 06:00:40.920, 133, 144, 88
2023/06/21 06:00:42.040, 118, 155, 87
2023/06/21 06:00:43.176, 119, 149, 97
2023/06/21 06:00:44.312, 118, 149, 91
2023/06/21 06:00:45.432, 120, 153, 88
2023/06/21 06:00:46.568, 121, 152, 92
2023/06/21 06:00:47.688, 125, 166, 95
2023/06/21 06:00:48.824, 127, 162, 90
2023/06/21 06:00:49.960, 127, 158, 91
2023/06/21 06:00:51.080, 124, 154, 92
2023/06/21 06:00:52.216, 126, 151, 89
2023/06/21 06:00:53.352, 132, 151, 88
2023/06/21 06:00:54.471, 129, 158, 94
2023/06/21 06:00:55.608, 120, 147, 93
2023/06/21 06:00:56.728, 122, 157, 93
2023/06/21 06:00:57.864, 125, 154, 89
2023/06/21 06:00:58.999, 120, 152, 93
2023/06/21 06:01:00.119, 121, 151, 92
2023/06/21 06:01:01.255, 124, 153, 90
2023/06/21 06:01:02.391, 122, 150, 94
2023/06/21 06:01:03.511, 123, 150, 94
2023/06/21 06:01:04.647, 122, 145, 93
2023/06/21 06:01:05.767, 124, 146, 98
2023/06/21 06:01:06.903, 125, 146, 89
2023/06/21 06:01:08.039, 123, 149, 88
2023/06/21 06:01:09.159, 122, 148, 88
2023/06/21 06:01:10.295, 120, 145, 88
2023/06/21 06:01:11.431, 122, 154, 91
2023/06/21 06:01:12.550, 121, 147, 88
2023/06/21 06:01:13.687, 122, 148, 92
2023/06/21 06:01:14.807, 121, 147, 85
2023/06/21 06:01:15.942, 120, 148, 87
2023/06/21 06:01:17.078, 119, 145, 85
2023/06/21 06:01:18.198, 119, 144, 86
2023/06/21 06:01:19.334, 121, 147, 92
2023/06/21 06:01:20.470, 119, 153, 94
2023/06/21 06:01:21.589, 120, 233, 87
2023/06/21 06:01:22.725, 118, 145, 87
2023/06/21 06:01:23.846, 120, 145, 88
2023/06/21 06:01:24.982, 118, 144, 86
2023/06/21 06:01:26.118, 117, 145, 85
2023/06/21 06:01:27.238, 118, 142, 86
2023/06/21 06:01:28.374, 118, 142, 91
2023/06/21 06:01:29.509, 117, 140, 88
2023/06/21 06:01:30.630, 127, 143, 88
2023/06/21 06:01:31.765, 116, 138, 85
2023/06/21 06:01:32.885, 118, 137, 84
2023/06/21 06:01:34.021, 117, 139, 89
2023/06/21 06:01:35.157, 119, 143, 88
2023/06/21 06:01:36.277, 116, 135, 83
2023/06/21 06:01:37.413, 117, 133, 80
2023/06/21 06:01:38.533, 112, 136, 102
2023/06/21 06:01:39.669, 115, 150, 83
2023/06/21 06:01:40.805, 115, 141, 88
2023/06/21 06:01:41.925, 115, 139, 84
2023/06/21 06:01:43.061, 115, 135, 84
2023/06/21 06:01:44.197, 119, 131, 84
2023/06/21 06:01:45.317, 114, 136, 84
2023/06/21 06:01:46.452, 112, 139, 84
2023/06/21 06:01:47.573, 113, 131, 84
2023/06/21 06:01:48.708, 112, 135, 89
2023/06/21 06:01:49.844, 118, 142, 85
2023/06/21 06:01:50.964, 112, 132, 93
2023/06/21 06:01:52.100, 110, 136, 80
2023/06/21 06:01:53.236, 113, 139, 83
2023/06/21 06:01:54.356, 115, 137, 84
2023/06/21 06:01:55.492, 116, 133, 81
2023/06/21 06:01:56.612, 110, 130, 82
2023/06/21 06:01:57.748, 111, 137, 83
2023/06/21 06:01:58.884, 110, 134, 82
2023/06/21 06:02:00.003, 111, 134, 80
2023/06/21 06:02:01.140, 108, 146, 81
2023/06/21 06:02:02.276, 110, 145, 85
2023/06/21 06:02:03.396, 110, 130, 84
2023/06/21 06:02:04.531, 111, 128, 80
2023/06/21 06:02:05.651, 108, 127, 80
2023/06/21 06:02:06.787, 112, 127, 80
2023/06/21 06:02:07.923, 108, 126, 79
2023/06/21 06:02:09.043, 109, 128, 80
2023/06/21 06:02:10.179, 109, 129, 82
2023/06/21 06:02:11.315, 115, 145, 80
2023/06/21 06:02:12.435, 109, 136, 80
2023/06/21 06:02:13.571, 115, 129, 77
2023/06/21 06:02:14.691, 114, 134, 78
2023/06/21 06:02:15.827, 109, 126, 79
2023/06/21 06:02:16.963, 109, 132, 81
2023/06/21 06:02:18.083, 109, 128, 79
2023/06/21 06:02:19.218, 107, 129, 81
2023/06/21 06:02:20.354, 117, 123, 80
2023/06/21 06:02:21.474, 107, 127, 80
2023/06/21 06:02:22.610, 107, 134, 79
2023/06/21 06:02:23.730, 113, 127, 76
2023/06/21 06:02:24.866, 113, 132, 78
2023/06/21 06:02:26.002, 106, 130, 79
2023/06/21 06:02:27.122, 105, 119, 76
2023/06/21 06:02:28.258, 108, 124, 80
2023/06/21 06:02:29.377, 106, 121, 79
2023/06/21 06:02:30.514, 106, 122, 79
2023/06/21 06:02:31.650, 101, 127, 78
2023/06/21 06:02:32.769, 104, 123, 74
2023/06/21 06:02:33.906, 107, 123, 79
2023/06/21 06:02:35.042, 105, 121, 77
2023/06/21 06:02:36.162, 105, 123, 79
2023/06/21 06:02:37.297, 109, 120, 79
2023/06/21 06:02:38.417, 104, 114, 75
2023/06/21 06:02:39.553, 105, 116, 74
2023/06/21 06:02:40.689, 105, 118, 75
2023/06/21 06:02:41.809, 106, 116, 78
2023/06/21 06:02:42.945, 104, 119, 71
2023/06/21 06:02:44.065, 105, 118, 79
2023/06/21 06:02:45.201, 105, 116, 81
2023/06/21 06:02:46.337, 104, 117, 79
2023/06/21 06:02:47.457, 105, 119, 77
2023/06/21 06:02:48.593, 106, 119, 75
2023/06/21 06:02:49.729, 105, 113, 77
2023/06/21 06:02:50.849, 102, 115, 77
2023/06/21 06:02:51.984, 104, 113, 75
2023/06/21 06:02:53.104, 103, 115, 74
2023/06/21 06:02:54.240, 103, 116, 73
2023/06/21 06:02:55.376, 105, 119, 75
2023/06/21 06:02:56.495, 102, 120, 78
2023/06/21 06:02:57.632, 102, 120, 78
2023/06/21 06:02:58.768, 103, 117, 74
2023/06/21 06:02:59.888, 109, 120, 76
2023/06/21 06:03:01.024, 101, 111, 75
2023/06/21 06:03:02.144, 102, 114, 75
2023/06/21 06:03:03.280, 101, 114, 73
2023/06/21 06:03:04.416, 101, 117, 75
2023/06/21 06:03:05.536, 102, 114, 76
2023/06/21 06:03:06.672, 103, 110, 75
2023/06/21 06:03:07.808, 103, 113, 75
2023/06/21 06:03:08.927, 101, 115, 74
2023/06/21 06:03:10.063, 100, 113, 72
2023/06/21 06:03:11.183, 98, 114, 75
2023/06/21 06:03:12.319, 100, 113, 75
2023/06/21 06:03:13.455, 101, 112, 73
2023/06/21 06:03:14.575, 103, 109, 76
2023/06/21 06:03:15.711, 101, 112, 74
2023/06/21 06:03:16.847, 102, 108, 70
2023/06/21 06:03:17.967, 97, 116, 72
2023/06/21 06:03:19.103, 100, 113, 69
2023/06/21 06:03:20.222, 100, 111, 74
2023/06/21 06:03:21.359, 97, 111, 73
2023/06/21 06:03:22.479, 97, 110, 70
2023/06/21 06:03:23.615, 100, 116, 72
2023/06/21 06:03:24.750, 99, 111, 73
2023/06/21 06:03:25.870, 97, 110, 69
2023/06/21 06:03:27.006, 97, 113, 71
2023/06/21 06:03:28.126, 100, 113, 70
2023/06/21 06:03:29.262, 99, 113, 72
2023/06/21 06:03:30.398, 98, 110, 72
2023/06/21 06:03:31.518, 97, 108, 71
2023/06/21 06:03:32.654, 99, 112, 69
2023/06/21 06:03:33.774, 100, 110, 70
2023/06/21 06:03:34.910, 102, 110, 71
2023/06/21 06:03:36.030, 97, 110, 72
2023/06/21 06:03:37.166, 100, 109, 71
2023/06/21 06:03:38.302, 101, 109, 73
2023/06/21 06:03:39.422, 97, 106, 73
2023/06/21 06:03:40.558, 98, 111, 74
2023/06/21 06:03:41.677, 96, 110, 73
2023/06/21 06:03:42.813, 96, 111, 69
2023/06/21 06:03:43.949, 95, 107, 69
2023/06/21 06:03:45.069, 97, 110, 70
2023/06/21 06:03:46.205, 95, 117, 73
2023/06/21 06:03:47.325, 96, 110, 67
2023/06/21 06:03:48.461, 98, 104, 72
2023/06/21 06:03:49.581, 98, 111, 90
2023/06/21 06:03:50.717, 96, 113, 70
2023/06/21 06:03:51.853, 98, 115, 72
2023/06/21 06:03:52.973, 96, 110, 69
2023/06/21 06:03:54.109, 96, 110, 72
2023/06/21 06:03:55.229, 95, 103, 69
2023/06/21 06:03:56.365, 95, 106, 66
2023/06/21 06:03:57.484, 96, 106, 69
2023/06/21 06:03:58.620, 97, 104, 69
2023/06/21 06:03:59.756, 96, 106, 71
2023/06/21 06:04:00.876, 93, 108, 71
2023/06/21 06:04:02.011, 96, 102, 68
2023/06/21 06:04:03.132, 97, 108, 69
2023/06/21 06:04:04.268, 94, 104, 70
2023/06/21 06:04:05.388, 95, 102, 70
2023/06/21 06:04:06.524, 99, 107, 70
2023/06/21 06:04:07.660, 96, 105, 68
2023/06/21 06:04:08.780, 95, 102, 68
2023/06/21 06:04:09.916, 95, 104, 69
2023/06/21 06:04:11.035, 93, 104, 69
2023/06/21 06:04:12.172, 92, 109, 69
2023/06/21 06:04:13.291, 94, 103, 64
2023/06/21 06:04:14.427, 93, 102, 67
2023/06/21 06:04:15.563, 95, 105, 70
2023/06/21 06:04:16.683, 96, 106, 67
2023/06/21 06:04:17.819, 94, 106, 71
2023/06/21 06:04:18.939, 93, 104, 69
2023/06/21 06:04:20.075, 94, 101, 69
2023/06/21 06:04:21.195, 95, 102, 69
2023/06/21 06:04:22.331, 92, 109, 69
2023/06/21 06:04:23.467, 95, 105, 67
2023/06/21 06:04:24.586, 93, 109, 68
2023/06/21 06:04:25.723, 94, 103, 65
2023/06/21 06:04:26.843, 94, 132, 69
2023/06/21 06:04:27.979, 93, 102, 67
2023/06/21 06:04:29.099, 92, 101, 67
2023/06/21 06:04:30.235, 91, 101, 67
2023/06/21 06:04:31.370, 93, 102, 67
2023/06/21 06:04:32.490, 96, 102, 66
2023/06/21 06:04:33.626, 92, 100, 67
2023/06/21 06:04:34.746, 96, 102, 69
2023/06/21 06:04:35.882, 92, 100, 69
2023/06/21 06:04:37.002, 91, 100, 69
2023/06/21 06:04:38.138, 94, 102, 68
2023/06/21 06:04:39.258, 93, 101, 68
2023/06/21 06:04:40.393, 94, 103, 70
2023/06/21 06:04:41.530, 92, 99, 68
2023/06/21 06:04:42.649, 90, 103, 66
2023/06/21 06:04:43.786, 89, 98, 68
2023/06/21 06:04:44.906, 94, 100, 67
2023/06/21 06:04:46.042, 98, 101, 68
2023/06/21 06:04:47.161, 92, 100, 70
2023/06/21 06:04:48.297, 89, 100, 66
2023/06/21 06:04:49.433, 90, 100, 69
2023/06/21 06:04:50.553, 97, 96, 68
2023/06/21 06:04:51.689, 94, 99, 66
2023/06/21 06:04:52.809, 94, 100, 67
2023/06/21 06:04:53.945, 90, 102, 66
2023/06/21 06:04:55.065, 91, 97, 64
2023/06/21 06:04:56.201, 92, 100, 67
2023/06/21 06:04:57.321, 91, 99, 66
2023/06/21 06:04:58.457, 93, 99, 65
2023/06/21 06:04:59.577, 91, 98, 65
2023/06/21 06:05:00.712, 90, 101, 66
2023/06/21 06:05:01.832, 91, 101, 68
2023/06/21 06:05:02.968, 91, 96, 67
2023/06/21 06:05:04.104, 90, 98, 67
2023/06/21 06:05:05.224, 90, 99, 68
2023/06/21 06:05:06.360, 89, 98, 67
2023/06/21 06:05:07.480, 93, 101, 66
2023/06/21 06:05:08.616, 92, 101, 65
2023/06/21 06:05:09.736, 90, 95, 67
2023/06/21 06:05:10.872, 91, 101, 62
2023/06/21 06:05:11.992, 92, 98, 64
2023/06/21 06:05:13.128, 90, 100, 67
2023/06/21 06:05:14.248, 89, 98, 67
2023/06/21 06:05:15.384, 92, 97, 66
2023/06/21 06:05:16.504, 92, 97, 65
2023/06/21 06:05:17.640, 89, 96, 65
2023/06/21 06:05:18.776, 92, 103, 67
2023/06/21 06:05:19.896, 95, 102, 68
2023/06/21 06:05:21.031, 91, 104, 68
2023/06/21 06:05:22.151, 90, 97, 68
2023/06/21 06:05:23.287, 94, 96, 66
2023/06/21 06:05:24.407, 89, 100, 66
2023/06/21 06:05:25.543, 89, 99, 66
2023/06/21 06:05:26.663, 87, 96, 64
2023/06/21 06:05:27.799, 90, 96, 66
2023/06/21 06:05:28.919, 89, 97, 64
2023/06/21 06:05:30.055, 91, 99, 64
2023/06/21 06:05:31.175, 91, 98, 64
2023/06/21 06:05:32.311, 91, 96, 66
2023/06/21 06:05:33.431, 89, 93, 65
2023/06/21 06:05:34.567, 92, 102, 66
2023/06/21 06:05:35.687, 92, 97, 64
2023/06/21 06:05:36.822, 88, 99, 64
2023/06/21 06:05:37.958, 89, 98, 64
2023/06/21 06:05:39.078, 90, 96, 64
2023/06/21 06:05:40.214, 90, 93, 65
2023/06/21 06:05:41.334, 89, 94, 65
2023/06/21 06:05:42.470, 92, 95, 65
2023/06/21 06:05:43.590, 85, 92, 62
2023/06/21 06:05:44.726, 90, 97, 63
2023/06/21 06:05:45.846, 91, 91, 66
2023/06/21 06:05:46.982, 88, 94, 66
2023/06/21 06:05:48.101, 88, 96, 66
2023/06/21 06:05:49.238, 89, 95, 65
2023/06/21 06:05:50.358, 89, 97, 64
2023/06/21 06:05:51.494, 88, 96, 65
2023/06/21 06:05:52.614, 89, 95, 64
2023/06/21 06:05:53.749, 89, 96, 63
2023/06/21 06:05:54.869, 89, 97, 63
2023/06/21 06:05:56.005, 87, 91, 67
2023/06/21 06:05:57.125, 87, 95, 65
2023/06/21 06:05:58.261, 88, 96, 64
2023/06/21 06:05:59.381, 88, 93, 65
2023/06/21 06:06:00.517, 89, 94, 64
2023/06/21 06:06:01.653, 88, 96, 65
2023/06/21 06:06:02.773, 88, 94, 64
2023/06/21 06:06:03.909, 87, 92, 66
2023/06/21 06:06:05.029, 88, 94, 67
2023/06/21 06:06:06.165, 86, 93, 65
2023/06/21 06:06:07.285, 88, 93, 65
2023/06/21 06:06:08.421, 89, 93, 65
2023/06/21 06:06:09.540, 88, 93, 64
2023/06/21 06:06:10.676, 90, 94, 62
2023/06/21 06:06:11.796, 88, 92, 68
2023/06/21 06:06:12.932, 91, 91, 63
2023/06/21 06:06:14.052, 88, 95, 62
2023/06/21 06:06:15.188, 88, 91, 66
2023/06/21 06:06:16.308, 88, 96, 61
2023/06/21 06:06:17.444, 87, 94, 62
2023/06/21 06:06:18.564, 87, 96, 65
2023/06/21 06:06:19.700, 88, 93, 62
2023/06/21 06:06:20.820, 88, 94, 63
2023/06/21 06:06:21.956, 86, 89, 62
2023/06/21 06:06:23.076, 87, 92, 65
2023/06/21 06:06:24.211, 88, 93, 65
2023/06/21 06:06:25.332, 90, 89, 62
2023/06/21 06:06:26.467, 88, 93, 64
2023/06/21 06:06:27.587, 86, 95, 63
2023/06/21 06:06:28.723, 85, 94, 62
2023/06/21 06:06:29.859, 88, 94, 64
2023/06/21 06:06:30.979, 87, 92, 64
2023/06/21 06:06:32.115, 89, 91, 63
2023/06/21 06:06:33.235, 86, 94, 63
2023/06/21 06:06:34.371, 87, 93, 66
2023/06/21 06:06:35.491, 88, 92, 66
2023/06/21 06:06:36.626, 88, 93, 64
2023/06/21 06:06:37.746, 86, 91, 64
2023/06/21 06:06:38.883, 85, 90, 63
2023/06/21 06:06:40.003, 88, 91, 60
2023/06/21 06:06:41.138, 89, 91, 62
2023/06/21 06:06:42.259, 89, 93, 62
2023/06/21 06:06:43.394, 86, 92, 63
2023/06/21 06:06:44.514, 88, 91, 65
2023/06/21 06:06:45.650, 86, 90, 65
2023/06/21 06:06:46.770, 89, 91, 63
2023/06/21 06:06:47.906, 85, 90, 62
2023/06/21 06:06:49.026, 87, 89, 62
2023/06/21 06:06:50.162, 85, 95, 63
2023/06/21 06:06:51.282, 88, 91, 64
2023/06/21 06:06:52.418, 86, 87, 62
2023/06/21 06:06:53.538, 88, 97, 62
2023/06/21 06:06:54.674, 87, 92, 65
2023/06/21 06:06:55.793, 88, 90, 62
2023/06/21 06:06:56.929, 87, 92, 63
2023/06/21 06:06:58.049, 88, 92, 62
2023/06/21 06:06:59.185, 85, 89, 62
2023/06/21 06:07:00.321, 83, 92, 63
2023/06/21 06:07:01.441, 89, 92, 63
2023/06/21 06:07:02.577, 87, 89, 63
2023/06/21 06:07:03.697, 87, 89, 61
2023/06/21 06:07:04.833, 85, 90, 62
2023/06/21 06:07:05.952, 89, 90, 62
2023/06/21 06:07:07.089, 86, 89, 62
2023/06/21 06:07:08.209, 87, 91, 63
2023/06/21 06:07:09.345, 85, 90, 64
2023/06/21 06:07:10.465, 86, 91, 62
2023/06/21 06:07:11.601, 86, 92, 62
2023/06/21 06:07:12.721, 85, 100, 62
2023/06/21 06:07:13.856, 88, 98, 62
2023/06/21 06:07:14.976, 86, 95, 63
2023/06/21 06:07:16.112, 86, 92, 64
2023/06/21 06:07:17.232, 87, 89, 60
2023/06/21 06:07:18.368, 89, 92, 61
2023/06/21 06:07:19.488, 86, 91, 61
2023/06/21 06:07:20.624, 85, 88, 62
2023/06/21 06:07:21.744, 91, 91, 62
2023/06/21 06:07:22.879, 85, 93, 62
2023/06/21 06:07:24.016, 88, 92, 61
2023/06/21 06:07:25.135, 85, 90, 61
2023/06/21 06:07:26.272, 87, 88, 63
2023/06/21 06:07:27.392, 88, 87, 60
2023/06/21 06:07:28.528, 85, 89, 65
2023/06/21 06:07:29.647, 88, 92, 62
2023/06/21 06:07:30.783, 85, 89, 62
2023/06/21 06:07:31.903, 86, 90, 61
2023/06/21 06:07:33.039, 85, 92, 62
2023/06/21 06:07:34.159, 84, 90, 63
2023/06/21 06:07:35.295, 84, 89, 62
2023/06/21 06:07:36.415, 85, 92, 64
2023/06/21 06:07:37.551, 87, 89, 64
2023/06/21 06:07:38.671, 85, 91, 63
2023/06/21 06:07:39.807, 86, 89, 64
2023/06/21 06:07:40.927, 86, 91, 63
2023/06/21 06:07:42.063, 83, 89, 65
2023/06/21 06:07:43.183, 86, 90, 65
2023/06/21 06:07:44.319, 88, 88, 65
2023/06/21 06:07:45.439, 83, 93, 62
2023/06/21 06:07:46.574, 86, 89, 62
2023/06/21 06:07:47.694, 85, 90, 60
2023/06/21 06:07:48.830, 86, 90, 62
2023/06/21 06:07:49.950, 85, 88, 62
2023/06/21 06:07:51.086, 85, 89, 62
2023/06/21 06:07:52.206, 83, 90, 61
2023/06/21 06:07:53.342, 85, 89, 63
2023/06/21 06:07:54.462, 85, 89, 65
2023/06/21 06:07:55.598, 84, 87, 60
2023/06/21 06:07:56.734, 86, 87, 63
2023/06/21 06:07:57.854, 85, 89, 62
2023/06/21 06:07:58.990, 86, 91, 61
2023/06/21 06:08:00.110, 85, 86, 63
2023/06/21 06:08:01.246, 85, 91, 61
2023/06/21 06:08:02.366, 88, 89, 62
2023/06/21 06:08:03.501, 86, 91, 64
2023/06/21 06:08:04.621, 84, 91, 63
2023/06/21 06:08:05.757, 86, 89, 56
2023/06/21 06:08:06.877, 86, 91, 64
2023/06/21 06:08:08.013, 85, 86, 59
2023/06/21 06:08:09.133, 88, 87, 61
2023/06/21 06:08:10.269, 86, 91, 60
2023/06/21 06:08:11.389, 86, 87, 62
2023/06/21 06:08:12.525, 85, 88, 62
2023/06/21 06:08:13.645, 87, 89, 62
2023/06/21 06:08:14.781, 88, 90, 61
2023/06/21 06:08:15.901, 83, 89, 59
2023/06/21 06:08:17.037, 83, 89, 62
2023/06/21 06:08:18.157, 86, 87, 63
2023/06/21 06:08:19.293, 83, 92, 61
2023/06/21 06:08:20.412, 86, 90, 62
2023/06/21 06:08:21.548, 84, 90, 62
2023/06/21 06:08:22.684, 85, 90, 59
2023/06/21 06:08:23.804, 83, 87, 64
2023/06/21 06:08:24.940, 86, 89, 61
2023/06/21 06:08:26.060, 86, 100, 63
2023/06/21 06:08:27.196, 84, 118, 61
2023/06/21 06:08:28.316, 84, 89, 62
2023/06/21 06:08:29.452, 83, 89, 62
2023/06/21 06:08:30.572, 85, 89, 61
2023/06/21 06:08:31.708, 83, 88, 63
2023/06/21 06:08:32.828, 85, 89, 63
2023/06/21 06:08:33.963, 85, 86, 61
2023/06/21 06:08:35.083, 85, 89, 59
2023/06/21 06:08:36.219, 85, 90, 63
2023/06/21 06:08:37.339, 85, 87, 64
2023/06/21 06:08:38.475, 88, 88, 61
2023/06/21 06:08:39.595, 84, 90, 62
2023/06/21 06:08:40.731, 87, 88, 63
2023/06/21 06:08:41.851, 87, 88, 60
2023/06/21 06:08:42.987, 84, 88, 62
2023/06/21 06:08:44.107, 85, 87, 63
2023/06/21 06:08:45.243, 86, 87, 62
2023/06/21 06:08:46.363, 88, 91, 62
2023/06/21 06:08:47.499, 86, 87, 62
2023/06/21 06:08:48.619, 88, 85, 63
2023/06/21 06:08:49.755, 84, 90, 61
2023/06/21 06:08:50.890, 82, 89, 62
2023/06/21 06:08:52.010, 84, 88, 63
2023/06/21 06:08:53.146, 83, 89, 62
2023/06/21 06:08:54.266, 83, 88, 61
2023/06/21 06:08:55.402, 86, 91, 62
2023/06/21 06:08:56.522, 83, 89, 63
2023/06/21 06:08:57.658, 84, 87, 62
2023/06/21 06:08:58.778, 86, 87, 58
2023/06/21 06:08:59.914, 87, 87, 63
2023/06/21 06:09:01.034, 88, 90, 63
2023/06/21 06:09:02.170, 85, 90, 60
2023/06/21 06:09:03.290, 86, 86, 61
2023/06/21 06:09:04.426, 84, 88, 63
2023/06/21 06:09:05.546, 84, 87, 62
2023/06/21 06:09:06.682, 84, 84, 64
2023/06/21 06:09:07.802, 84, 88, 58
2023/06/21 06:09:08.937, 88, 85, 62
2023/06/21 06:09:10.057, 84, 87, 62
2023/06/21 06:09:11.193, 85, 88, 61
2023/06/21 06:09:12.313, 84, 87, 61
2023/06/21 06:09:13.449, 84, 87, 62
2023/06/21 06:09:14.569, 83, 89, 60
2023/06/21 06:09:15.705, 85, 89, 61
2023/06/21 06:09:16.841, 85, 87, 62
2023/06/21 06:09:17.961, 83, 90, 62
2023/06/21 06:09:19.097, 84, 85, 61
2023/06/21 06:09:20.216, 84, 87, 62
2023/06/21 06:09:21.353, 84, 89, 62
2023/06/21 06:09:22.472, 82, 87, 62
2023/06/21 06:09:23.608, 85, 87, 63
2023/06/21 06:09:24.728, 84, 86, 64
2023/06/21 06:09:25.864, 84, 89, 61
2023/06/21 06:09:26.984, 84, 89, 62
2023/06/21 06:09:28.119, 87, 90, 61
2023/06/21 06:09:29.240, 85, 88, 60
2023/06/21 06:09:30.376, 83, 86, 61
2023/06/21 06:09:31.496, 83, 89, 62
2023/06/21 06:09:32.632, 84, 87, 64
2023/06/21 06:09:33.752, 81, 89, 62
2023/06/21 06:09:34.887, 87, 86, 62
2023/06/21 06:09:36.007, 82, 91, 63
2023/06/21 06:09:37.144, 83, 87, 62
2023/06/21 06:09:38.264, 82, 86, 63
2023/06/21 06:09:39.399, 85, 86, 61
2023/06/21 06:09:40.519, 84, 88, 62
2023/06/21 06:09:41.655, 84, 87, 62
2023/06/21 06:09:42.775, 83, 87, 63
2023/06/21 06:09:43.911, 83, 87, 61
2023/06/21 06:09:45.031, 85, 89, 62
2023/06/21 06:09:46.167, 83, 85, 60
2023/06/21 06:09:47.287, 84, 87, 61
2023/06/21 06:09:48.423, 83, 90, 65
2023/06/21 06:09:49.543, 84, 88, 62
2023/06/21 06:09:50.679, 84, 86, 60
2023/06/21 06:09:51.815, 85, 89, 60
2023/06/21 06:09:52.935, 85, 88, 63
2023/06/21 06:09:54.071, 85, 89, 58
2023/06/21 06:09:55.190, 80, 89, 63
2023/06/21 06:09:56.327, 84, 86, 60
2023/06/21 06:09:57.446, 85, 87, 63
2023/06/21 06:09:58.582, 85, 88, 61
2023/06/21 06:09:59.702, 83, 87, 63
2023/06/21 06:10:00.838, 85, 87, 61
2023/06/21 06:10:01.958, 82, 89, 58
2023/06/21 06:10:03.094, 87, 87, 60
2023/06/21 06:10:04.214, 86, 88, 61
2023/06/21 06:10:05.350, 84, 87, 62
2023/06/21 06:10:06.470, 82, 86, 61
2023/06/21 06:10:07.606, 84, 87, 59
2023/06/21 06:10:08.726, 85, 89, 61
2023/06/21 06:10:09.862, 82, 86, 62
2023/06/21 06:10:10.982, 86, 86, 62
2023/06/21 06:10:12.117, 85, 88, 62
2023/06/21 06:10:13.238, 84, 88, 63
2023/06/21 06:10:14.374, 83, 88, 63
2023/06/21 06:10:15.493, 85, 90, 65
2023/06/21 06:10:16.629, 84, 87, 66
2023/06/21 06:10:17.749, 87, 89, 64
2023/06/21 06:10:18.885, 87, 90, 66
2023/06/21 06:10:20.020, 86, 93, 65
2023/06/21 06:10:21.141, 88, 91, 66
2023/06/21 06:10:22.277, 90, 90, 66
2023/06/21 06:10:23.397, 91, 91, 65
2023/06/21 06:10:24.533, 89, 95, 66
2023/06/21 06:10:25.653, 93, 97, 67
2023/06/21 06:10:26.789, 90, 96, 67
2023/06/21 06:10:27.909, 94, 101, 67
2023/06/21 06:10:29.044, 89, 97, 67
2023/06/21 06:10:30.164, 91, 97, 67
2023/06/21 06:10:31.300, 94, 102, 65
2023/06/21 06:10:32.420, 92, 99, 66
2023/06/21 06:10:33.556, 121, 99, 68
2023/06/21 06:10:34.676, 91, 104, 65
2023/06/21 06:10:35.812, 94, 104, 69
2023/06/21 06:10:36.947, 94, 109, 70
2023/06/21 06:10:38.068, 95, 104, 70
2023/06/21 06:10:39.204, 93, 108, 70
2023/06/21 06:10:40.324, 98, 106, 69
2023/06/21 06:10:41.460, 94, 103, 68
2023/06/21 06:10:42.580, 97, 105, 72
2023/06/21 06:10:43.715, 96, 104, 75
2023/06/21 06:10:44.851, 95, 106, 71
2023/06/21 06:10:45.971, 96, 114, 75
2023/06/21 06:10:47.107, 93, 109, 72
2023/06/21 06:10:48.227, 99, 110, 69
2023/06/21 06:10:49.363, 99, 107, 70
2023/06/21 06:10:50.483, 100, 107, 74
2023/06/21 06:10:51.619, 112, 106, 75
2023/06/21 06:10:52.755, 97, 108, 79
2023/06/21 06:10:53.875, 101, 105, 72
2023/06/21 06:10:55.011, 102, 113, 74
2023/06/21 06:10:56.147, 100, 106, 75
2023/06/21 06:10:57.267, 98, 110, 75
2023/06/21 06:10:58.403, 100, 111, 73
2023/06/21 06:10:59.523, 98, 113, 72
2023/06/21 06:11:00.659, 98, 111, 74
2023/06/21 06:11:01.778, 100, 108, 92
2023/06/21 06:11:02.915, 97, 119, 73
2023/06/21 06:11:04.050, 99, 118, 75
2023/06/21 06:11:05.170, 102, 115, 79
2023/06/21 06:11:06.306, 101, 116, 75
2023/06/21 06:11:07.441, 102, 112, 79
2023/06/21 06:11:08.562, 100, 113, 72
2023/06/21 06:11:09.698, 99, 115, 75
2023/06/21 06:11:10.818, 104, 116, 77
2023/06/21 06:11:11.954, 108, 114, 76
2023/06/21 06:11:13.090, 101, 122, 78
2023/06/21 06:11:14.210, 103, 116, 74
2023/06/21 06:11:15.345, 105, 119, 78
2023/06/21 06:11:16.466, 102, 117, 81
2023/06/21 06:11:17.602, 104, 120, 78
2023/06/21 06:11:18.737, 104, 120, 78
2023/06/21 06:11:19.857, 103, 114, 76
2023/06/21 06:11:20.993, 106, 123, 76
2023/06/21 06:11:22.129, 104, 121, 75
2023/06/21 06:11:23.249, 108, 121, 77
2023/06/21 06:11:24.385, 103, 119, 80
2023/06/21 06:11:25.504, 103, 121, 77
2023/06/21 06:11:26.641, 106, 123, 78
2023/06/21 06:11:27.776, 106, 123, 80
2023/06/21 06:11:28.897, 105, 124, 75
2023/06/21 06:11:30.033, 106, 122, 77
2023/06/21 06:11:31.153, 106, 120, 78
2023/06/21 06:11:32.289, 104, 136, 76
2023/06/21 06:11:33.425, 106, 121, 79
2023/06/21 06:11:34.545, 105, 119, 79
2023/06/21 06:11:35.680, 104, 121, 78
2023/06/21 06:11:36.816, 105, 127, 78
2023/06/21 06:11:37.936, 104, 119, 78
2023/06/21 06:11:39.072, 108, 122, 82
2023/06/21 06:11:40.192, 106, 119, 78
2023/06/21 06:11:41.328, 108, 124, 78
2023/06/21 06:11:42.464, 107, 129, 116
2023/06/21 06:11:43.584, 104, 129, 80
2023/06/21 06:11:44.719, 107, 126, 80
2023/06/21 06:11:45.856, 107, 125, 76
2023/06/21 06:11:46.976, 108, 126, 87
2023/06/21 06:11:48.112, 106, 124, 82
2023/06/21 06:11:49.231, 103, 125, 81
2023/06/21 06:11:50.367, 108, 126, 78
2023/06/21 06:11:51.503, 112, 131, 82
2023/06/21 06:11:52.623, 107, 145, 78